TimeCDT,TemperatureF,Dew PointF,Humidity,Sea Level PressureIn,VisibilityMPH,Wind Direction,Wind SpeedMPH,Gust SpeedMPH,PrecipitationIn,Events,Conditions,WindDirDegrees,DateUTC
12:53 AM,46.0,34.0,63,30.08,10.0,Calm,Calm,-,N/A,,Clear,0,2013-03-15 05:53:00
1:53 AM,39.0,33.1,79,30.06,10.0,NE,3.5,-,N/A,,Clear,50,2013-03-15 06:53:00
2:53 AM,41.0,33.1,73,30.04,10.0,Calm,Calm,-,N/A,,Clear,0,2013-03-15 07:53:00
3:53 AM,39.9,33.1,77,30.00,10.0,SSE,3.5,-,N/A,,Clear,160,2013-03-15 08:53:00
4:53 AM,41.0,33.1,73,29.97,10.0,SSE,5.8,-,N/A,,Clear,160,2013-03-15 09:53:00
5:53 AM,42.1,34.0,73,29.96,10.0,SSE,4.6,-,N/A,,Clear,160,2013-03-15 10:53:00
6:53 AM,39.9,34.0,79,29.96,10.0,SSE,5.8,-,N/A,,Clear,160,2013-03-15 11:53:00
7:53 AM,39.0,34.0,82,29.93,10.0,South,3.5,-,N/A,,Clear,170,2013-03-15 12:53:00
8:53 AM,46.9,37.9,71,29.91,10.0,South,6.9,-,N/A,,Clear,180,2013-03-15 13:53:00
9:53 AM,55.9,42.1,60,29.89,10.0,South,12.7,-,N/A,,Clear,190,2013-03-15 14:53:00
10:53 AM,64.0,43.0,46,29.87,10.0,SSW,11.5,-,N/A,,Clear,210,2013-03-15 15:53:00
11:53 AM,69.1,43.0,39,29.84,10.0,SSW,16.1,-,N/A,,Clear,210,2013-03-15 16:53:00
12:53 PM,73.0,45.0,37,29.82,10.0,SW,13.8,21.9,N/A,,Clear,220,2013-03-15 17:53:00
1:53 PM,77.0,44.1,31,29.79,10.0,WSW,15.0,-,N/A,,Clear,240,2013-03-15 18:53:00
2:53 PM,79.0,43.0,28,29.75,10.0,SW,15.0,-,N/A,,Clear,230,2013-03-15 19:53:00
3:53 PM,80.1,44.1,28,29.71,10.0,SSW,12.7,21.9,N/A,,Clear,200,2013-03-15 20:53:00
4:53 PM,80.1,42.1,26,29.69,10.0,SSW,19.6,-,N/A,,Clear,200,2013-03-15 21:53:00
5:53 PM,75.9,46.9,36,29.68,10.0,South,19.6,26.5,N/A,,Clear,190,2013-03-15 22:53:00
6:53 PM,70.0,46.9,44,29.67,10.0,South,10.4,-,N/A,,Clear,190,2013-03-15 23:53:00
7:53 PM,64.9,45.0,48,29.68,10.0,South,10.4,-,N/A,,Clear,180,2013-03-16 00:53:00
8:53 PM,62.1,44.1,52,29.67,10.0,South,10.4,-,N/A,,Clear,180,2013-03-16 01:53:00
9:53 PM,62.1,44.1,52,29.66,10.0,SSW,12.7,-,N/A,,Clear,200,2013-03-16 02:53:00
10:53 PM,62.1,44.1,52,29.68,10.0,SW,13.8,-,N/A,,Clear,220,2013-03-16 03:53:00
11:53 PM,57.9,42.1,56,29.69,10.0,WNW,6.9,-,N/A,,Clear,300,2013-03-16 04:53:00